1506002401.18,13400,14.44,73162.5,-2.15,-3.07,-2.99,0,*56
1506002402.41,13401,14.38,73166.3,-2.13,-2.95,-2.95,0,*57
1506002403.61,13402,14.38,73162.8,-2.15,-2.99,-2.99,0,*52
1506002404.81,13403,14.38,73158.0,-2.15,-3.07,-3.07,0,*53
1506002406.01,13404,14.44,73162.3,-2.15,-3.07,-2.95,0,*5E
1506002407.21,13405,14.38,73160.0,-2.15,-2.99,-3.07,0,*53
1506002408.41,13406,14.38,73166.5,-2.15,-2.99,-3.07,0,*50
1506002409.61,13407,14.44,73166.0,-2.15,-2.99,-2.99,0,*57
1506002410.81,13408,14.44,73164.8,-2.15,-2.99,-2.99,0,*58
1506002412.03,13409,14.38,73164.3,-2.17,-2.99,-3.07,0,*5D
1506002413.25,13410,14.38,73168.5,-2.17,-2.99,-2.99,0,*53
1506002414.47,13411,14.44,73170.3,-2.17,-2.99,-2.99,0,*52
1506002415.69,13412,14.38,73170.3,-2.17,-2.99,-2.99,0,*51
1506002416.91,13413,14.38,73168.5,-2.17,-2.99,-2.99,0,*50
1506002418.11,13414,14.38,73168.5,-2.15,-2.99,-3.07,0,*53
1506002419.31,13415,14.38,73162.8,-2.15,-2.99,-3.07,0,*52
1506002420.51,13416,14.38,73154.0,-2.15,-3.07,-2.99,0,*51
1506002421.73,13417,14.38,73156.8,-2.17,-3.11,-3.07,0,*53
1506002422.93,13418,14.38,73162.3,-2.15,-3.07,-2.99,0,*5F
1506002424.15,13419,14.38,73154.5,-2.17,-3.07,-3.07,0,*5A
1506002425.36,13420,14.38,73166.8,-2.17,-2.99,-3.07,0,*56
1506002426.56,13421,14.38,73174.3,-2.15,-2.99,-3.07,0,*55
1506002427.78,13422,14.38,73154.3,-2.17,-2.99,-2.99,0,*52
1506002429.01,13423,14.38,73150.0,-2.17,-2.99,-2.99,0,*53
1506002430.23,13424,14.38,73144.0,-2.17,-2.99,-2.99,0,*54
1506002431.44,13425,14.38,73148.8,-2.17,-2.99,-3.07,0,*53
1506002432.66,13426,14.38,73156.5,-2.17,-2.99,-3.07,0,*50
1506002433.86,13427,14.38,73160.3,-2.15,-3.07,-2.99,0,*53
1506002435.08,13428,14.38,73162.3,-2.17,-2.99,-3.07,0,*5E
1506002436.3,13429,14.38,73160.5,-2.17,-2.99,-3.07,0,*5F
1506002437.5,13430,14.38,73168.8,-2.15,-2.99,-2.99,0,*53
1506002438.72,13431,14.44,73168.8,-2.17,-2.99,-3.07,0,*56
1506002439.94,13432,14.38,73160.3,-2.17,-2.99,-2.99,0,*53
1506002441.14,13433,14.38,73158.0,-2.15,-2.99,-3.07,0,*56
1506002442.36,13434,14.38,73166.3,-2.17,-2.99,-2.99,0,*55
1506002443.58,13435,14.38,73164.5,-2.17,-2.99,-2.99,0,*54
1506002444.77,13436,14.38,73166.5,-2.19,-3.03,-3.03,0,*59
1506002446.0,13437,14.38,73160.8,-2.17,-2.95,-2.95,0,*56
1506002447.19,13438,14.38,73162.3,-2.19,-2.99,-3.03,0,*55
1506002448.39,13439,14.38,73162.8,-2.19,-2.99,-3.03,0,*54
1506002449.59,13440,14.38,73164.0,-2.15,-2.99,-2.99,0,*54
1506002450.78,13441,14.38,73166.3,-2.19,-3.03,-3.03,0,*59
1506002452.0,13442,14.38,73170.8,-2.17,-2.99,-2.99,0,*54
1506002453.22,13443,14.44,73174.8,-2.17,-2.99,-2.99,0,*55
1506002454.44,13444,14.38,73164.5,-2.17,-2.99,-2.99,0,*52
1506002455.66,13445,14.38,73154.8,-2.17,-3.11,-3.11,0,*53
1506002456.85,13446,14.38,73156.3,-2.19,-3.15,-3.15,0,*5E
1506002458.07,13447,14.38,73154.5,-2.17,-3.11,-3.11,0,*51
1506002459.27,13448,14.38,73168.5,-2.19,-3.15,-3.11,0,*54
1506002460.46,13449,14.38,73158.8,-2.19,-3.15,-3.15,0,*51
1506002461.67,13450,14.38,73156.8,-2.17,-3.07,-3.11,0,*50
1506002462.87,13451,14.38,73172.8,-2.19,-3.11,-3.11,0,*58
1506002464.06,13452,14.38,73162.0,-2.19,-2.99,-2.99,0,*5B
1506002465.28,13453,14.38,73154.0,-2.17,-3.07,-3.07,0,*54
1506002466.47,13454,14.38,73158.8,-2.19,-3.11,-3.11,0,*5D
1506002467.69,13455,14.38,73166.0,-2.17,-2.99,-3.07,0,*54
1506002468.88,13456,14.44,73166.8,-2.19,-3.03,-3.11,0,*5C
1506002470.1,13457,14.38,73160.5,-2.17,-2.99,-2.99,0,*50
1506002471.29,13458,14.38,73164.0,-2.19,-3.03,-3.03,0,*51
1506002472.48,13459,14.38,73170.5,-2.19,-3.03,-3.03,0,*50
1506002473.68,13460,14.38,73160.3,-2.19,-3.03,-3.03,0,*5A
1506002474.87,13461,14.38,73156.3,-2.19,-3.11,-3.11,0,*5B
1506002476.06,13462,14.38,73158.5,-2.19,-3.11,-3.11,0,*58
1506002477.25,13463,14.38,73160.5,-2.19,-3.11,-3.07,0,*5E
1506002478.45,13464,14.38,73162.0,-2.19,-3.03,-3.03,0,*5E
1506002479.66,13465,14.38,73162.8,-2.17,-2.99,-3.07,0,*57
1506002480.86,13466,14.38,73162.3,-2.19,-3.03,-3.11,0,*5F
1506002482.05,13467,14.38,73168.3,-2.19,-3.03,-3.11,0,*5E
1506002483.24,13468,14.38,73156.3,-2.19,-3.03,-3.03,0,*52
1506002484.43,13469,14.38,73156.5,-2.19,-3.03,-3.03,0,*53
1506002485.62,13470,14.38,73162.8,-2.19,-3.03,-3.11,0,*58
1506002486.81,13471,14.38,73166.3,-2.19,-3.11,-3.11,0,*5A
1506002488.01,13472,14.38,73168.3,-2.19,-3.11,-3.11,0,*59
1506002489.23,13473,14.38,73162.8,-2.17,-2.99,-2.99,0,*56
1506002490.45,13474,14.38,73158.3,-2.17,-2.99,-2.99,0,*51
1506002491.64,13475,14.38,73160.5,-2.19,-3.03,-3.03,0,*5E
1506002492.83,13476,14.38,73168.3,-2.19,-3.03,-3.11,0,*5E
1506002494.03,13477,14.38,73176.0,-2.19,-3.03,-3.03,0,*5C
1506002495.22,13478,14.38,73174.3,-2.19,-3.03,-3.03,0,*53
1506002496.41,13479,14.38,73166.0,-2.19,-3.03,-3.11,0,*51
1506002497.6,13480,14.38,73154.0,-2.19,-3.11,-3.15,0,*50
1506002498.79,13481,14.38,73166.3,-2.19,-3.11,-3.15,0,*51
1506002500.01,13482,14.38,73170.8,-2.21,-3.15,-3.11,0,*59
1506002501.23,13483,14.38,73166.3,-2.21,-3.11,-3.15,0,*58
1506002502.45,13484,14.38,73160.8,-2.21,-3.11,-3.11,0,*5B
1506002503.64,13485,14.38,73160.3,-2.19,-3.11,-3.03,0,*52
1506002504.84,13486,14.38,73158.8,-2.19,-3.03,-3.03,0,*52
1506002506.03,13487,14.38,73168.8,-2.19,-3.03,-3.11,0,*50
1506002507.22,13488,14.38,73162.8,-2.19,-3.03,-3.03,0,*5C
1506002508.44,13489,14.38,73158.3,-2.21,-3.03,-3.03,0,*56
1506002509.67,13490,14.38,73162.5,-2.21,-3.03,-3.03,0,*5E
1506002510.89,13491,14.38,73158.0,-2.21,-3.03,-3.03,0,*5F
1506002512.11,13492,14.38,73164.8,-2.21,-3.03,-2.99,0,*5E
1506002513.34,13493,14.38,73160.5,-2.21,-2.99,-2.99,0,*5D
1506002514.53,13494,14.38,73160.0,-2.19,-2.99,-2.99,0,*51
1506002515.73,13495,14.38,73160.0,-2.19,-3.03,-2.99,0,*52
1506002516.96,13496,14.38,73162.3,-2.17,-2.95,-2.95,0,*5D
1506002518.15,13497,14.44,73170.0,-2.19,-2.99,-2.99,0,*52
1506002519.35,13498,14.38,73162.0,-2.19,-2.99,-2.99,0,*5D
1506002520.57,13499,14.38,73152.5,-2.21,-2.99,-3.03,0,*55
1506002521.79,13500,14.38,73154.5,-2.21,-3.11,-3.03,0,*55
1506002523.01,13501,14.38,73158.3,-2.21,-3.03,-3.11,0,*54
1506002524.21,13502,14.38,73166.0,-2.23,-3.07,-3.03,0,*52
1506002525.43,13503,14.38,73162.5,-2.21,-3.11,-3.03,0,*56
1506002526.66,13504,14.38,73160.8,-2.21,-3.03,-3.11,0,*51
1506002527.85,13505,14.38,73174.5,-2.19,-3.03,-3.11,0,*5B
1506002529.04,13506,14.38,73166.0,-2.19,-3.11,-3.11,0,*5B
1506002530.26,13507,14.38,73166.0,-2.21,-3.03,-3.03,0,*51
1506002531.48,13508,14.38,73166.3,-2.21,-3.03,-3.03,0,*5E
1506002532.71,13509,14.38,73170.0,-2.21,-3.03,-3.03,0,*5F
1506002533.93,13510,14.38,73174.3,-2.21,-3.03,-3.03,0,*57
1506002535.15,13511,14.38,73174.3,-2.21,-3.03,-3.03,0,*56
1506002536.37,13512,14.38,73166.8,-2.21,-3.03,-3.03,0,*55
1506002537.6,13513,14.38,73172.3,-2.21,-3.03,-3.03,0,*54
1506002538.82,13514,14.44,73180.8,-2.21,-3.03,-3.03,0,*53
1506002540.04,13515,14.38,73178.0,-2.21,-3.03,-3.03,0,*52
1506002541.23,13516,14.38,73174.8,-2.19,-3.03,-3.03,0,*5A
1506002542.43,13517,14.38,73178.3,-2.23,-3.07,-3.03,0,*56
1506002543.65,13518,14.38,73178.8,-2.21,-3.03,-3.03,0,*5F
1506002544.85,13519,14.38,73178.0,-2.23,-3.07,-3.07,0,*5C
1506002546.07,13520,14.38,73174.5,-2.21,-3.03,-3.03,0,*54
1506002547.27,13521,14.38,73178.8,-2.19,-3.03,-3.03,0,*5E
1506002548.46,13522,14.38,73178.0,-2.23,-3.03,-3.07,0,*50
1506002549.69,13523,14.38,73178.0,-2.21,-2.99,-3.03,0,*55
1506002550.91,13524,14.38,73180.0,-2.21,-2.99,-3.03,0,*52
1506002552.13,13525,14.38,73180.8,-2.21,-2.99,-3.03,0,*53
1506002553.33,13526,14.38,73182.3,-2.23,-3.07,-3.07,0,*50
1506002554.55,13527,14.38,73182.0,-2.21,-3.03,-3.03,0,*53
1506002555.77,13528,14.38,73180.0,-2.21,-3.03,-3.11,0,*5F
1506002556.97,13529,14.38,73174.3,-2.23,-3.15,-3.07,0,*5C
1506002558.2,13530,14.38,73174.0,-2.21,-3.03,-3.03,0,*55
1506002559.42,13531,14.38,73172.5,-2.21,-3.03,-3.11,0,*57
1506002560.64,13532,14.38,73170.8,-2.21,-3.03,-3.03,0,*57
1506002561.84,13533,14.38,73164.3,-2.23,-3.15,-3.03,0,*53
1506002563.03,13534,14.38,73164.8,-2.19,-3.03,-3.03,0,*5A
1506002564.26,13535,14.38,73156.5,-2.21,-3.03,-3.11,0,*53
1506002565.45,13536,14.38,73156.0,-2.23,-3.07,-3.07,0,*51
1506002566.68,13537,14.44,73160.3,-2.21,-3.03,-3.03,0,*52
1506002567.9,13538,14.38,73160.0,-2.21,-3.03,-3.03,0,*5D
1506002569.12,13539,14.38,73164.0,-2.21,-3.03,-3.03,0,*5C
1506002570.32,13540,14.38,73168.5,-2.23,-3.07,-3.07,0,*50
1506002571.54,13541,14.38,73166.8,-2.21,-3.11,-3.11,0,*53
1506002572.74,13542,14.38,73164.3,-2.23,-3.15,-3.07,0,*51
1506002573.96,13543,14.38,73166.3,-2.21,-3.03,-3.11,0,*52
1506002575.18,13544,14.38,73160.0,-2.21,-3.11,-3.11,0,*56
1506002576.4,13545,14.38,73158.3,-2.21,-3.03,-3.11,0,*54
1506002577.62,13546,14.38,73160.5,-2.21,-3.11,-3.15,0,*50
1506002578.82,13547,14.38,73160.3,-2.23,-3.15,-3.15,0,*57
1506002580.04,13548,14.38,73158.8,-2.21,-3.11,-3.23,0,*5B
1506002581.26,13549,14.38,73158.3,-2.21,-3.11,-3.15,0,*5F
1506002582.45,13550,14.38,73160.8,-2.23,-3.07,-3.15,0,*52
1506002583.64,13551,14.38,73152.0,-2.23,-3.19,-3.15,0,*5C
1506002584.85,13552,14.38,73160.0,-2.23,-3.15,-3.07,0,*50
1506002586.07,13553,14.38,73166.0,-2.21,-3.03,-3.11,0,*53
1506002587.27,13554,14.38,73176.0,-2.23,-3.07,-3.07,0,*55
1506002588.49,13555,14.38,73166.8,-2.21,-3.03,-3.11,0,*55
1506002589.68,13556,14.44,73158.8,-2.23,-3.15,-3.15,0,*57
1506002590.88,13557,14.38,73152.8,-2.23,-3.15,-3.15,0,*56
1506002592.08,13558,14.38,73156.8,-2.23,-3.15,-3.19,0,*55
1506002593.28,13559,14.38,73162.0,-2.23,-3.15,-3.15,0,*58
1506002594.47,13560,14.38,73164.8,-2.23,-3.15,-3.15,0,*52
1506002595.67,13561,14.38,73162.8,-2.23,-3.07,-3.15,0,*50
1506002596.87,13562,14.38,73164.5,-2.23,-3.15,-3.07,0,*53
1506002598.07,13563,14.38,73172.3,-2.23,-3.07,-3.07,0,*51
1506002599.27,13564,14.38,73172.5,-2.27,-3.07,-3.07,0,*52
1506002600.47,13565,14.38,73174.8,-2.23,-3.15,-3.07,0,*54
1506002601.67,13566,14.38,73176.5,-2.23,-3.15,-3.15,0,*54
1506002602.89,13567,14.38,73172.8,-2.21,-3.03,-3.03,0,*57
1506002604.09,13568,14.38,73172.8,-2.23,-3.15,-3.07,0,*59
1506002605.29,13569,14.38,73174.3,-2.23,-3.15,-3.15,0,*5B
1506002606.48,13570,14.38,73174.8,-2.27,-3.07,-3.15,0,*54
1506002607.67,13571,14.38,73178.5,-2.27,-3.07,-3.15,0,*55
1506002608.88,13572,14.38,73174.5,-2.23,-3.15,-3.07,0,*52
1506002610.07,13573,14.38,73176.0,-2.23,-3.07,-3.15,0,*53
1506002611.27,13574,14.38,73178.5,-2.27,-3.15,-3.15,0,*53
1506002612.47,13575,14.38,73170.0,-2.27,-3.07,-3.07,0,*52
1506002613.66,13576,14.38,73172.0,-2.23,-3.07,-3.07,0,*55
1506002614.87,13577,14.38,73178.5,-2.23,-3.15,-3.07,0,*57
1506002616.06,13578,14.38,73172.8,-2.27,-3.07,-3.07,0,*5F
1506002617.26,13579,14.38,73170.5,-2.27,-3.15,-3.15,0,*5E
1506002618.46,13580,14.38,73174.8,-2.27,-3.15,-3.07,0,*5B
1506002619.68,13581,14.38,73180.0,-2.29,-3.11,-3.19,0,*5F
1506002620.88,13582,14.38,73178.5,-2.27,-3.15,-3.07,0,*59
1506002622.07,13583,14.38,73176.5,-2.27,-3.07,-3.15,0,*58
1506002623.27,13584,14.38,73176.0,-2.27,-3.07,-3.07,0,*5C
1506002624.47,13585,14.38,73176.3,-2.27,-3.07,-3.07,0,*5D
1506002625.67,13586,14.38,73176.8,-2.27,-3.07,-3.07,0,*5E
1506002626.87,13587,14.38,73176.0,-2.23,-3.07,-3.07,0,*5B
1506002628.06,13588,14.38,73182.5,-2.23,-3.07,-3.07,0,*54
1506002629.27,13589,14.38,73178.3,-2.23,-3.15,-3.07,0,*56
1506002630.46,13590,14.38,73176.0,-2.27,-3.07,-3.15,0,*5A
1506002631.66,13591,14.38,73174.8,-2.27,-3.07,-3.07,0,*58
1506002632.86,13592,14.38,73178.0,-2.27,-3.07,-3.07,0,*5B
1506002634.05,13593,14.38,73178.3,-2.27,-3.07,-3.07,0,*5A
1506002635.25,13594,14.38,73178.8,-2.27,-3.07,-3.07,0,*5D
1506002636.45,13595,14.38,73178.3,-2.27,-3.07,-3.07,0,*5C
1506002637.65,13596,14.38,73182.8,-2.27,-3.07,-3.07,0,*5F
1506002638.84,13597,14.38,73180.3,-2.27,-3.07,-3.07,0,*5E
1506002640.04,13598,14.38,73182.5,-2.27,-3.07,-3.07,0,*51
1506002641.24,13599,14.38,73180.0,-2.27,-3.03,-3.07,0,*54
1506002642.44,13600,14.38,73178.5,-2.27,-3.03,-3.07,0,*57
1506002643.64,13601,14.38,73180.8,-2.27,-3.03,-3.07,0,*56
1506002644.83,13602,14.44,73180.3,-2.27,-3.03,-3.07,0,*55
1506002646.03,13603,14.38,73174.5,-2.27,-3.03,-3.15,0,*57
1506002647.23,13604,14.38,73178.8,-2.27,-3.03,-3.07,0,*53
1506002648.42,13605,14.44,73182.5,-2.27,-3.03,-3.07,0,*52
1506002649.65,13606,14.38,73174.8,-2.29,-3.07,-3.11,0,*5C
1506002650.84,13607,14.38,73176.8,-2.27,-3.03,-3.07,0,*50
1506002652.04,13608,14.38,73180.0,-2.27,-3.07,-3.03,0,*5F
1506002653.24,13609,14.38,73182.0,-2.23,-3.07,-3.03,0,*5A
1506002654.44,13610,14.38,73182.5,-2.23,-3.03,-3.03,0,*56
1506002655.64,13611,14.38,73158.8,-2.27,-3.03,-3.07,0,*57
1506002656.86,13612,14.38,73164.0,-2.29,-3.19,-3.19,0,*5E
1506002658.05,13613,14.38,73164.8,-2.27,-3.27,-3.19,0,*5C
1506002659.25,13614,14.38,73160.8,-2.27,-3.27,-3.19,0,*5B
1506002660.45,13615,14.38,73152.8,-2.23,-3.19,-3.19,0,*53
1506002661.64,13616,14.38,73160.3,-2.27,-3.19,-3.19,0,*54
1506002662.84,13617,14.38,73156.3,-2.27,-3.19,-3.19,0,*55
1506002664.03,13618,14.38,73146.3,-2.27,-3.15,-3.15,0,*5A
1506002665.23,13619,14.38,73148.3,-2.27,-3.07,-3.15,0,*58
1506002666.45,13620,14.38,73162.5,-2.29,-3.11,-3.19,0,*57
1506002667.67,13621,14.38,73162.8,-2.29,-3.19,-3.11,0,*56
1506002668.89,13622,14.38,73158.3,-2.29,-3.11,-3.11,0,*5D
1506002670.11,13623,14.38,73160.3,-2.29,-3.11,-3.19,0,*54
1506002671.3,13624,14.38,73166.0,-2.27,-3.15,-3.15,0,*55
1506002672.5,13625,14.38,73172.8,-2.27,-3.19,-3.19,0,*54
1506002673.7,13626,14.38,73172.5,-2.27,-3.07,-3.07,0,*57
1506002674.89,13627,14.38,73172.5,-2.27,-3.07,-3.07,0,*56
1506002676.09,13628,14.38,73172.8,-2.27,-3.15,-3.15,0,*59
1506002677.31,13629,14.38,73176.5,-2.29,-3.19,-3.19,0,*56
1506002678.51,13630,14.38,73174.0,-2.27,-3.07,-3.07,0,*50
1506002679.7,13631,14.38,73176.5,-2.27,-3.07,-3.15,0,*52
1506002680.9,13632,14.38,73172.0,-2.27,-3.07,-3.07,0,*52
1506002682.12,13633,14.38,73176.5,-2.29,-3.11,-3.11,0,*5D
1506002683.32,13634,14.38,73178.0,-2.27,-3.07,-3.07,0,*54
1506002684.54,13635,14.38,73172.0,-2.29,-3.11,-3.19,0,*53
1506002685.76,13636,14.38,73178.0,-2.29,-3.11,-3.11,0,*58
1506002686.96,13637,14.38,73178.5,-2.27,-3.07,-3.07,0,*57
1506002688.18,13638,14.38,73160.0,-2.29,-3.11,-3.11,0,*56
1506002689.4,13639,14.38,73164.0,-2.29,-3.11,-3.11,0,*57
1506002690.62,13640,14.38,73178.8,-2.29,-3.11,-3.11,0,*59
1506002691.84,13641,14.38,73164.8,-2.29,-3.11,-3.19,0,*50
1506002693.07,13642,14.38,73168.5,-2.29,-3.11,-3.11,0,*5B
1506002694.29,13643,14.38,73174.3,-2.29,-3.11,-3.11,0,*5A
1506002695.51,13644,14.38,73172.5,-2.29,-3.11,-3.11,0,*5D
1506002696.73,13645,14.38,73170.8,-2.29,-3.11,-3.11,0,*5C
1506002697.95,13646,14.38,73174.8,-2.29,-3.11,-3.11,0,*5F
1506002699.18,13647,14.38,73174.8,-2.29,-3.11,-3.11,0,*5E
1506002700.37,13648,14.38,73182.8,-2.27,-3.11,-3.11,0,*5F
1506002701.6,13649,14.38,73176.5,-2.29,-3.11,-3.11,0,*50
1506002702.79,13650,14.38,73178.3,-2.27,-3.07,-3.07,0,*56
1506002704.02,13651,14.38,73178.8,-2.29,-3.11,-3.11,0,*59
1506002705.24,13652,14.38,73172.3,-2.29,-3.11,-3.11,0,*5A
1506002706.44,13653,14.38,73170.8,-2.27,-3.15,-3.15,0,*55
1506002707.63,13654,14.38,73176.3,-2.27,-3.07,-3.07,0,*52
1506002708.86,13655,14.38,73174.5,-2.29,-3.11,-3.07,0,*5A
1506002710.06,13656,14.38,73174.3,-2.27,-3.07,-3.03,0,*54
1506002711.28,13657,14.38,73182.8,-2.29,-3.07,-3.07,0,*5F
1506002712.5,13658,14.38,73180.5,-2.29,-3.07,-3.03,0,*54
1506002713.72,13659,14.38,73170.8,-2.29,-3.07,-3.07,0,*51
1506002714.94,13660,14.38,73168.3,-2.29,-3.11,-3.11,0,*5B
1506002716.16,13661,14.38,73174.0,-2.29,-3.11,-3.11,0,*5A
1506002717.39,13662,14.38,73172.8,-2.29,-3.11,-3.11,0,*59
1506002718.61,13663,14.38,73166.0,-2.29,-3.11,-3.11,0,*58
1506002719.83,13664,14.38,73172.8,-2.29,-3.07,-3.07,0,*5F
1506002721.05,13665,14.38,73172.8,-2.29,-3.07,-3.07,0,*5E
1506002722.25,13666,14.38,73174.5,-2.27,-3.03,-3.03,0,*53
1506002723.45,13667,14.38,73172.3,-2.27,-3.03,-3.03,0,*52
1506002724.65,13668,14.38,73178.3,-2.27,-2.99,-3.03,0,*5F
1506002725.87,13669,14.38,73172.8,-2.29,-3.03,-3.07,0,*56
1506002727.07,13670,14.38,73172.3,-2.27,-2.99,-3.03,0,*56
1506002728.29,13671,14.38,73172.8,-2.29,-3.03,-3.07,0,*5F
1506002729.51,13672,14.38,73170.3,-2.29,-3.07,-3.07,0,*58
1506002730.73,13673,14.38,73174.3,-2.29,-3.03,-3.03,0,*59
1506002731.94,13674,14.38,73174.5,-2.27,-2.99,-2.99,0,*50
1506002733.16,13675,14.38,73176.8,-2.29,-3.07,-3.07,0,*5F
1506002734.36,13676,14.38,73176.5,-2.27,-3.03,-3.03,0,*52
1506002735.56,13677,14.38,73182.5,-2.27,-2.99,-2.99,0,*53
1506002736.76,13678,14.38,73186.0,-2.27,-2.99,-3.03,0,*5E
1506002737.96,13679,14.38,73180.8,-2.27,-2.99,-3.03,0,*5F
1506002739.16,13680,14.38,73174.3,-2.27,-3.03,-2.99,0,*59
1506002740.36,13681,14.38,73162.3,-2.27,-3.03,-2.99,0,*58
1506002741.58,13682,14.38,73154.0,-2.29,-3.07,-3.03,0,*53
1506002742.78,13683,14.38,73172.5,-2.27,-2.99,-3.03,0,*5A
1506002743.98,13684,14.38,73194.8,-2.27,-3.03,-3.03,0,*5F
1506002745.21,13685,14.38,73172.0,-2.21,-2.99,-2.99,0,*58
1506002746.4,13686,14.38,73156.8,-2.23,-3.07,-3.07,0,*59
1506002747.62,13687,14.38,73172.8,-2.29,-3.11,-3.11,0,*52
1506002748.83,13688,14.38,73166.0,-2.27,-3.15,-3.07,0,*50
1506002750.02,13689,14.38,73160.0,-2.27,-3.15,-3.15,0,*52
1506002751.24,13690,14.38,73156.3,-2.29,-3.19,-3.11,0,*5C
1506002752.45,13691,14.38,73166.8,-2.27,-3.15,-3.07,0,*58
1506002753.67,13692,14.38,73164.0,-2.29,-3.11,-3.19,0,*5E
1506002754.86,13693,14.38,73162.0,-2.27,-3.07,-3.07,0,*59
1506002756.06,13694,14.38,73166.5,-2.27,-3.07,-3.07,0,*5E
1506002757.28,13695,14.38,73164.3,-2.29,-3.07,-3.11,0,*56
1506002758.5,13696,14.38,73166.3,-2.29,-3.07,-3.11,0,*55
1506002759.7,13697,14.38,73158.3,-2.27,-3.03,-3.07,0,*59
1506002760.9,13698,14.38,73158.5,-2.27,-3.03,-3.07,0,*56
1506002762.12,13699,14.38,73158.8,-2.29,-3.11,-3.11,0,*5D
1506002763.34,13700,14.38,73176.5,-2.29,-3.19,-3.19,0,*5C
1506002764.56,13701,14.38,73160.3,-2.29,-3.11,-3.07,0,*5A
1506002765.75,13702,14.38,73152.8,-2.27,-3.07,-3.15,0,*53
1506002766.95,13703,14.38,73154.8,-2.27,-3.15,-3.15,0,*51
1506002768.17,13704,14.38,73180.5,-2.29,-3.19,-3.19,0,*58
1506002769.39,13705,14.38,73180.8,-2.29,-3.19,-3.19,0,*59
1506002770.61,13706,14.38,73168.0,-2.29,-3.19,-3.19,0,*5A
1506002771.82,13707,14.38,73168.8,-2.29,-3.31,-3.23,0,*58
1506002773.04,13708,14.38,73164.8,-2.29,-3.23,-3.31,0,*57
1506002774.25,13709,14.38,73160.8,-2.29,-3.23,-3.23,0,*55
1506002775.47,13710,14.38,73170.3,-2.29,-3.23,-3.11,0,*5C
1506002776.66,13711,14.38,73160.5,-2.27,-3.19,-3.15,0,*5E
1506002777.88,13712,14.38,73168.3,-2.29,-3.19,-3.23,0,*56
1506002779.09,13713,14.38,73172.5,-2.29,-3.23,-3.23,0,*5E
1506002780.3,13714,14.38,73176.0,-2.29,-3.23,-3.23,0,*59
1506002781.52,13715,14.38,73174.3,-2.29,-3.19,-3.23,0,*51
1506002782.71,13716,14.38,73170.0,-2.31,-3.19,-3.23,0,*5B
1506002783.93,13717,14.38,73174.5,-2.29,-3.19,-3.23,0,*53
1506002785.14,13718,14.38,73164.8,-2.29,-3.19,-3.19,0,*55
1506002786.36,13719,14.38,73168.8,-2.29,-3.11,-3.19,0,*5C
1506002787.58,13720,14.38,73172.3,-2.29,-3.11,-3.19,0,*56
1506002788.78,13721,14.38,73176.8,-2.31,-3.11,-3.19,0,*5E
1506002789.98,13722,14.38,73184.0,-2.31,-3.19,-3.19,0,*55
1506002791.18,13723,14.38,73188.3,-2.31,-3.11,-3.11,0,*54
1506002792.4,13724,14.38,73190.8,-2.33,-3.15,-3.15,0,*51
1506002793.6,13725,14.38,73180.8,-2.31,-3.11,-3.11,0,*52
1506002794.81,13726,14.38,73178.3,-2.31,-3.11,-3.11,0,*51
1506002796.01,13727,14.38,73178.3,-2.31,-3.19,-3.11,0,*58
1506002797.21,13728,14.38,73168.0,-2.31,-3.11,-3.11,0,*5F
1506002798.41,13729,14.38,73162.8,-2.31,-3.11,-3.11,0,*5E
1506002799.61,13730,14.38,73162.8,-2.31,-3.11,-3.11,0,*56
1506002800.81,13731,14.38,73162.3,-2.31,-3.19,-3.19,0,*57
1506002802.01,13732,14.38,73162.5,-2.31,-3.11,-3.19,0,*5C
1506002803.2,13733,14.38,73164.0,-2.31,-3.19,-3.19,0,*55
1506002804.41,13734,14.38,73162.0,-2.31,-3.19,-3.11,0,*5A
1506002805.6,13735,14.38,73152.3,-2.31,-3.11,-3.19,0,*5B
1506002806.83,13736,14.38,73158.8,-2.33,-3.15,-3.15,0,*52
1506002808.05,13737,14.38,73164.8,-2.33,-3.15,-3.15,0,*53
1506002809.25,13738,14.38,73162.3,-2.31,-3.11,-3.11,0,*5E
1506002810.47,13739,14.38,73160.3,-2.33,-3.23,-3.15,0,*58
1506002811.67,13740,14.38,73154.3,-2.31,-3.19,-3.19,0,*51
1506002812.88,13741,14.38,73158.0,-2.29,-3.19,-3.19,0,*59
1506002814.08,13742,14.38,73160.0,-2.31,-3.11,-3.19,0,*5B
1506002815.29,13743,14.38,73166.5,-2.31,-3.11,-3.11,0,*52
1506002816.49,13744,14.38,73162.8,-2.31,-3.11,-3.11,0,*55
1506002817.71,13745,14.38,73164.0,-2.33,-3.15,-3.15,0,*56
1506002818.91,13746,14.38,73174.3,-2.31,-3.19,-3.11,0,*5F
1506002820.13,13747,14.38,73164.0,-2.33,-3.15,-3.23,0,*51
1506002821.35,13748,14.38,73164.5,-2.33,-3.15,-3.23,0,*5E
1506002822.55,13749,14.38,73164.3,-2.31,-3.19,-3.11,0,*50
1506002823.78,13750,14.38,73170.8,-2.33,-3.15,-3.15,0,*52
1506002824.98,13751,14.38,73168.3,-2.31,-3.11,-3.11,0,*51
1506002826.18,13752,14.38,73168.0,-2.31,-3.11,-3.11,0,*52
1506002827.38,13753,14.38,73168.8,-2.31,-3.11,-3.19,0,*5B
1506002828.59,13754,14.38,73154.0,-2.33,-3.23,-3.23,0,*56
1506002829.81,13755,14.38,73162.3,-2.33,-3.27,-3.23,0,*53
1506002831.03,13756,14.38,73170.8,-2.29,-3.23,-3.19,0,*56
1506002832.22,13757,14.38,73170.3,-2.31,-3.23,-3.19,0,*5E
1506002833.44,13758,14.38,73166.3,-2.29,-3.23,-3.19,0,*58
1506002834.64,13759,14.38,73164.3,-2.31,-3.31,-3.19,0,*53
1506002835.87,13760,14.38,73174.0,-2.33,-3.35,-3.35,0,*51
1506002837.09,13761,14.38,73152.5,-2.33,-3.35,-3.39,0,*5C
1506002838.36,13762,14.38,73154.5,-2.33,-3.47,-3.47,0,*53
1506002839.63,13763,14.38,73152.0,-2.33,-3.47,-3.51,0,*55
1506002840.91,13764,14.38,73156.5,-2.33,-3.59,-3.59,0,*55
1506002842.17,13765,14.38,73160.5,-2.33,-3.63,-3.75,0,*53
1506002843.4,13766,14.38,73144.0,-2.37,-3.75,-3.79,0,*5F
1506002844.63,13767,14.38,73148.3,-2.35,-3.71,-3.75,0,*54
1506002845.88,13768,14.38,73158.3,-2.37,-3.67,-3.75,0,*5E
1506002847.12,13769,14.38,73150.8,-2.35,-3.63,-3.71,0,*5D
1506002848.39,13770,14.38,73154.5,-2.37,-3.63,-3.67,0,*50
1506002849.66,13771,14.38,73142.3,-2.37,-3.55,-3.55,0,*55
1506002850.93,13772,14.38,73132.0,-2.37,-3.63,-3.55,0,*53
1506002852.2,13773,14.38,73134.3,-2.37,-3.55,-3.47,0,*54
1506002853.47,13774,14.38,73126.0,-2.37,-3.51,-3.51,0,*50
1506002854.72,13775,14.38,73120.0,-2.35,-3.51,-3.47,0,*54
1506002855.99,13776,14.38,73138.3,-2.37,-3.51,-3.51,0,*52
1506002857.24,13777,14.38,73182.0,-2.39,-3.51,-3.47,0,*5A
1506002858.48,13778,14.38,73150.5,-2.39,-3.55,-3.55,0,*52
1506002859.72,13779,14.38,73154.0,-2.39,-3.55,-3.47,0,*50
1506002860.97,13780,14.38,73146.3,-2.39,-3.55,-3.55,0,*55
1506002862.21,13781,14.38,73148.8,-2.39,-3.55,-3.55,0,*54
1506002863.49,13782,14.38,73156.3,-2.37,-3.51,-3.43,0,*5A
1506002864.75,13783,14.38,73158.5,-2.41,-3.47,-3.47,0,*59
1506002866.0,13784,14.38,73164.3,-2.39,-3.47,-3.47,0,*51
1506002867.25,13785,14.38,73158.0,-2.39,-3.47,-3.59,0,*5F
1506002868.53,13786,14.38,73160.0,-2.37,-3.51,-3.51,0,*5D
1506002869.79,13787,14.38,73162.0,-2.41,-3.55,-3.47,0,*5E
1506002871.04,13788,14.38,73172.5,-2.39,-3.47,-3.47,0,*5D
1506002872.31,13789,14.38,73166.5,-2.37,-3.51,-3.51,0,*52
1506002873.56,13790,14.38,73162.0,-2.39,-3.55,-3.55,0,*54
1506002874.82,13791,14.38,73160.5,-2.41,-3.55,-3.55,0,*5A
1506002876.06,13792,14.38,73164.0,-2.39,-3.47,-3.55,0,*55
1506002877.33,13793,14.38,73172.5,-2.41,-3.47,-3.47,0,*58
1506002878.6,13794,14.38,73168.3,-2.41,-3.43,-3.43,0,*5F
1506002879.85,13795,14.38,73174.5,-2.39,-3.43,-3.43,0,*51
1506002881.12,13796,14.38,73172.8,-2.41,-3.47,-3.55,0,*5E
1506002882.38,13797,14.38,73168.8,-2.41,-3.43,-3.47,0,*58
1506002883.65,13798,14.38,73166.3,-2.41,-3.47,-3.47,0,*53
1506002884.91,13799,14.38,73170.3,-2.41,-3.43,-3.47,0,*56
1506002886.16,13800,14.38,73172.8,-2.41,-3.35,-3.43,0,*5C
1506002887.36,13801,14.38,73174.3,-2.39,-3.35,-3.35,0,*53
1506002888.58,13802,14.38,73178.0,-2.43,-3.39,-3.47,0,*54
1506002889.81,13803,14.38,73188.5,-2.41,-3.35,-3.31,0,*5A
1506002891.03,13804,14.38,73186.3,-2.41,-3.35,-3.35,0,*59
1506002892.28,13805,14.38,73190.8,-2.41,-3.35,-3.43,0,*59
1506002893.52,13806,14.38,73184.5,-2.41,-3.35,-3.43,0,*5A
1506002894.79,13807,14.38,73182.3,-2.41,-3.55,-3.55,0,*5A
1506002896.06,13808,14.38,73174.5,-2.41,-3.59,-3.55,0,*59
1506002897.32,13809,14.38,73170.5,-2.41,-3.55,-3.55,0,*54
1506002898.57,13810,14.38,73156.5,-2.43,-3.51,-3.51,0,*5E
1506002899.81,13811,14.38,73154.0,-2.43,-3.51,-3.51,0,*5F
1506002901.06,13812,14.38,73154.3,-2.43,-3.51,-3.51,0,*5C
1506002902.31,13813,14.38,73166.0,-2.43,-3.47,-3.51,0,*5A